FW3928 Weather Reports


Display with metric or nautical units.
time (UTC)temp
F
wind
direction
speed
MPH
gust
MPH
rain 1hr
in
rain 24hr
in
rain mn
in
humidity
%
barometer
mb
20260505073046 42 247 5.0 11.0 0.00 0.03 0.00 89 1009.7
20260505071548 42 254 5.0 9.0 0.00 0.03 0.00 89 1009.3
20260505070041 42 258 5.0 10.0 0.00 0.03 0.00 90 1009.1
20260505064543 41 249 4.0 9.0 0.00 0.04 0.00 90 1008.9
20260505063039 41 238 3.0 9.0 0.00 0.04 0.00 91 1008.6
20260505061537 40 247 5.0 10.0 0.00 0.04 0.00 91 1008.2
20260505060036 40 206 6.0 11.0 0.00 0.05 0.00 92 1007.9
20260505054529 39 236 2.0 7.0 0.00 0.05 0.00 92 1007.8
20260505053029 39 264 0.0 0.0 0.00 0.05 0.00 91 1007.7
20260505051528 39 264 0.0 0.0 0.00 0.05 0.00 90 1007.7
20260505041517 41 239 5.0 10.0 0.00 0.05 0.00 89 1006.6
20260505040015 42 207 7.0 12.0 0.00 0.05 0.00 88 1006.5
20260505034510 42 210 7.0 12.0 0.00 0.05 0.00 87 1006.2
20260505033107 42 204 8.0 16.0 0.00 0.05 0.00 86 1006.1
20260505031505 43 214 6.0 12.0 0.00 0.05 0.00 85 1005.8
20260505030002 43 205 6.0 11.0 0.00 0.05 0.05 84 1005.6
20260505024559 44 220 8.0 18.0 0.00 0.05 0.05 83 1005.3
20260505023058 44 220 9.0 18.0 0.00 0.05 0.05 81 1005.2
20260505021557 45 218 6.0 14.0 0.00 0.05 0.05 80 1005.0
20260505020105 44 179 7.0 12.0 0.00 0.05 0.05 81 1004.9
20260505014605 43 227 3.0 8.0 0.00 0.06 0.05 81 1005.0
20260505013055 44 251 1.0 6.0 0.00 0.06 0.05 80 1005.1
20260505011554 45 199 5.0 9.0 0.00 0.06 0.05 78 1005.1
20260505010055 46 198 5.0 8.0 0.00 0.06 0.05 76 1005.0
20260505004555 46 216 5.0 10.0 0.00 0.11 0.05 74 1004.9
20260505003053 45 216 5.0 10.0 0.00 0.11 0.05 76 1004.6
20260505001550 45 202 8.0 16.0 0.00 0.11 0.05 76 1004.6
20260505000054 45 200 8.0 14.0 0.00 0.11 0.05 75 1004.3
20260504234544 45 202 8.0 14.0 0.00 0.31 0.05 75 1003.9
20260504233044 46 185 10.0 14.0 0.00 0.31 0.05 74 1003.8
20260504231542 47 203 7.0 14.0 0.00 0.31 0.05 72 1003.6
20260504230046 48 201 8.0 12.0 0.00 0.65 0.05 68 1003.4
20260504224545 52 222 10.0 20.0 0.00 0.65 0.05 59 1003.2
20260504223038 53 232 14.0 23.0 0.00 0.65 0.05 55 1003.1
20260504221538 54 233 12.0 19.0 0.00 0.65 0.05 56 1002.7
20260504220035 54 229 13.0 23.0 0.00 0.84 0.05 56 1002.8
20260504214534 54 253 13.0 24.0 0.00 0.84 0.05 58 1002.5
20260504213033 54 247 15.0 25.0 0.00 0.84 0.05 58 1002.4
20260504211533 54 233 10.0 26.0 0.00 0.84 0.05 60 1002.3
20260504210036 54 254 16.0 27.0 0.00 0.89 0.05 59 1002.1
20260504204532 54 250 13.0 30.0 0.00 0.89 0.05 57 1001.8
20260504203027 54 242 19.0 32.0 0.00 0.89 0.05 54 1001.7
20260504201525 54 258 15.0 26.0 0.00 0.89 0.05 56 1001.1
20260504200021 54 213 14.0 29.0 0.00 0.90 0.05 59 1000.8
20260504194521 53 266 13.0 30.0 0.00 0.90 0.05 63 1000.5
20260504193018 53 236 15.0 40.0 0.00 0.90 0.05 65 1000.2
20260504191515 53 228 19.0 34.0 0.00 0.90 0.05 66 1000.1
20260504190012 52 245 18.0 32.0 0.00 0.91 0.05 70 999.7
20260504184510 52 232 16.0 31.0 0.00 0.91 0.05 71 999.8
20260504183010 51 209 17.0 30.0 0.00 0.91 0.05 74 999.5
20260504181506 51 254 17.0 34.0 0.00 0.91 0.05 76 999.4
20260504180001 49 235 17.0 27.0 0.00 0.91 0.05 78 999.4
20260504174601 48 246 12.0 25.0 0.00 0.91 0.05 80 999.1
20260504173108 48 263 19.0 39.0 0.00 0.91 0.05 79 998.8
20260504171601 47 258 14.0 31.0 0.00 0.91 0.05 82 998.4
20260504160142 43 264 17.0 29.0 0.00 0.91 0.05 91 996.7
20260504100140 37 264 17.0 28.0 0.00 0.91 0.05 93 982.2
20260504081531 38 230 10.0 30.0 0.03 0.91 0.05 94 979.1